Location: Biltmore Gardens
(41.6070°N, 83.4666°W)
Time: 14:01:37
(UTC+00:00)

USA 215 - Pass Details

Date: 14 July 2020
Orbit: 1102 x 1106 km, 123.0° (Epoch: 31 July)

Event Time Altitude Azimuth Distance (km) Brightness Sun altitude
Rises 03:33:07 0° 50° (NE) 3,924 6.3 -20.3°
Reaches altitude 10° 03:35:41 10° 55° (NE) 2,963 5.6 -20.6°
Maximum altitude 03:42:04 54° 132° (SE) 1,317 3.3 -21.2°
Enters shadow 03:46:27 21° 202° (SSW) 2,251 4.5 -21.5°
